EHI
6 10 20 25 18 5 0 0 0 0 0 0 0 0 0 0 1 0 0 1 1 1 0 0 0 0 0 0 0 0 0 0 0 0 0 0 0 0 0 0 0 0 0 1 1 1 1 2 2
8 12 18 18 11 3 0 0 0 0 0 0 0 0 0 0 1 0 0 0 1 1 1 1 0 0 0 0 0 0 0 0 0 0 0 0 0 0 0 0 0 0 0 0 0 0 0 1 1
9 11 12 8 3 0 0 0 0 0 0 0 0 0 0 0 0 0 0 0 2 4 4 2 1 0 0 0 0 0 0 0 0 0 0 0 1 1 1 0 0 0 0 0 0 0 0 0 0
11 9 6 2 0 0 0 0 0 0 0 0 0 0 0 0 0 0 0 1 3 6 6 4 2 1 0 0 0 0 0 0 0 0 0 0 1 2 1 0 0 0 0 0 1 0 0 0 0
10 7 3 1 0 0 0 0 0 0 0 0 0 0 0 0 0 0 0 0 3 6 6 4 3 3 1 0 0 0 0 0 0 0 1 1 1 2 1 0 0 0 0 0 0 0 0 0 0
6 4 1 0 0 0 0 0 0 0 0 0 0 1 1 1 0 0 0 1 2 5 5 4 4 4 3 1 0 0 0 0 0 0 0 0 1 1 0 0 0 0 0 0 0 0 0 0 0
2 1 0 0 0 0 0 0 0 0 0 0 0 1 2 1 0 0 1 2 3 4 4 4 5 5 4 3 2 1 1 1 0 0 0 0 0 0 0 0 0 0 0 0 0 0 0 0 0
1 0 0 0 0 0 0 0 0 0 0 0 0 1 3 3 1 0 1 2 3 4 4 6 8 8 6 6 5 4 3 2 1 1 0 0 0 0 0 1 1 1 0 0 0 0 1 1 2
0 0 0 0 0 0 0 0 0 0 0 0 0 2 3 3 1 0 0 1 2 4 6 8 9 9 8 8 9 7 5 2 2 2 2 1 1 1 1 2 2 2 1 1 2 4 5 6 6
0 0 0 0 0 0 0 0 0 0 0 0 1 2 2 1 1 0 0 1 3 5 7 10 10 8 8 8 9 8 8 5 4 4 5 3 1 1 1 2 2 2 2 3 7 10 11 11 10
0 0 0 0 0 0 0 0 0 0 0 2 3 2 1 0 0 0 1 3 5 6 7 9 9 8 7 7 6 7 9 9 8 7 6 3 1 1 2 3 3 3 3 7 11 13 12 9 8
0 0 0 0 0 0 0 0 0 0 1 3 5 3 1 0 0 1 3 5 8 9 8 8 9 9 8 6 5 5 7 10 10 10 6 3 1 1 3 5 6 6 6 7 9 9 7 5 4
0 0 0 0 0 0 0 0 0 0 1 4 5 4 1 1 1 2 5 7 10 11 9 8 9 9 10 8 6 5 6 7 10 11 9 5 1 1 2 5 7 7 6 5 4 3 3 4 5
0 0 0 0 0 0 0 0 0 1 1 4 6 5 3 3 4 6 8 10 12 12 11 10 10 11 10 8 7 7 6 6 8 12 13 8 4 3 2 3 4 4 4 4 2 1 2 4 5
0 0 0 0 0 0 1 1 1 1 2 5 8 9 8 7 9 11 13 14 15 15 15 13 12 14 13 10 9 9 8 7 9 13 16 13 9 7 5 3 1 2 3 4 4 4 3 4 4
0 0 0 0 0 0 1 1 0 1 3 6 9 11 13 13 15 16 17 18 20 22 21 17 15 18 16 13 12 12 10 9 9 13 18 19 15 11 9 5 2 1 3 4 6 6 4 3 3
0 0 0 0 0 0 0 0 1 1 4 8 11 15 19 22 24 25 24 24 28 32 29 23 20 20 18 15 14 14 13 12 11 15 21 22 19 16 13 10 7 5 4 5 6 6 7 7 6
0 0 0 0 0 0 1 1 2 2 4 10 15 20 28 34 36 35 33 32 38 43 41 34 28 26 22 17 15 16 17 16 18 23 25 22 19 18 16 15 13 10 8 7 7 9 11 12 12
0 0 0 0 0 1 2 4 4 2 4 10 18 26 37 45 48 48 44 44 49 55 55 48 41 37 31 24 21 21 20 20 24 31 32 24 17 17 17 17 16 13 11 10 11 13 16 15 13
0 0 0 0 0 1 2 4 4 2 3 10 18 27 38 49 58 61 59 57 60 65 65 58 53 49 43 36 30 27 24 22 24 32 37 29 20 18 18 17 15 13 12 14 15 16 16 13 10
0 0 0 0 0 0 1 4 5 3 3 8 16 25 35 48 61 69 69 67 68 71 70 65 63 61 54 46 39 35 33 30 26 31 37 33 25 23 22 20 18 16 15 16 17 17 14 10 8
0 0 0 0 0 0 0 2 6 5 4 6 14 25 34 44 58 68 71 71 71 71 71 72 72 69 62 53 45 43 42 37 31 31 35 35 30 26 25 25 24 22 20 16 14 13 11 9 8
0 0 0 0 0 0 0 2 5 6 5 7 14 23 32 39 50 61 68 71 70 67 68 74 77 72 66 59 52 48 45 39 33 31 35 37 34 29 26 27 29 29 24 18 13 10 9 9 9
0 0 0 0 0 0 0 1 4 5 6 7 12 19 26 33 43 55 65 70 70 65 66 74 78 74 69 64 59 53 48 42 38 38 41 42 37 32 27 27 31 33 28 24 19 13 11 11 12
0 0 0 0 0 0 0 1 4 4 5 7 10 14 19 29 42 52 61 68 71 70 70 75 79 77 72 68 64 58 54 50 46 44 45 43 39 34 29 29 33 34 30 26 23 19 17 15 14
0 0 0 0 0 0 0 2 4 4 5 7 9 12 17 29 43 52 58 65 71 74 74 75 78 76 72 68 65 62 59 54 49 46 43 41 37 33 32 34 35 34 29 24 23 22 21 19 17
0 0 0 0 0 0 1 3 4 4 6 9 11 14 19 29 42 52 58 63 71 75 74 72 73 72 68 64 62 61 61 56 50 47 42 37 33 30 34 38 38 34 28 25 24 23 21 20 20
0 0 0 0 0 0 1 3 2 3 7 11 16 21 23 28 39 50 57 63 71 75 73 69 67 67 63 60 58 58 58 55 51 47 39 33 30 31 34 38 38 34 28 25 25 23 20 19 20
0 0 0 0 0 0 1 2 1 2 7 14 22 28 28 28 37 49 56 62 69 71 69 65 64 64 61 57 54 53 53 52 49 43 35 31 31 33 34 35 34 33 28 25 25 24 19 18 19
0 0 0 0 0 0 0 1 0 2 6 14 25 33 31 29 37 49 57 61 66 67 65 63 62 63 60 55 52 50 51 51 47 40 34 32 33 33 33 33 32 32 29 25 23 22 18 16 17
Wind_Speed
8 10 9 6 4 7 16 16 16 15 16 16 16 16 19 18 13 12 9 11 13 13 12 13 13 14 14 13 13 13 13 13 14 14 15 15 15 15 16 15 15 16 16 16 16 16 15 15 14
9 11 9 5 3 11 15 14 15 15 14 15 18 19 19 19 15 12 11 12 13 14 13 13 14 14 14 13 13 13 13 13 14 14 15 14 15 15 15 15 15 15 16 16 16 15 15 14 13
13 14 7 1 11 13 15 14 14 14 13 16 17 17 14 13 13 11 12 13 14 15 14 13 14 14 14 14 13 13 14 14 14 14 14 14 15 15 15 15 15 15 15 15 15 14 13 12 11
9 6 2 8 16 16 14 13 13 15 14 15 15 14 15 14 13 12 13 14 15 16 15 14 14 14 14 14 13 13 14 14 14 14 14 14 14 15 15 15 14 14 14 14 14 13 12 11 9
8 3 5 11 17 15 14 14 14 15 16 19 19 17 16 14 14 13 12 13 15 16 15 14 15 15 14 14 14 14 14 14 14 14 14 14 14 14 14 14 13 13 13 13 12 11 11 9 7
5 2 5 11 16 14 14 14 15 16 17 19 19 18 14 12 11 12 12 12 14 16 15 13 14 15 14 14 14 14 14 14 14 14 14 13 14 13 13 13 12 12 12 12 11 11 9 7 5
5 1 8 14 15 15 13 13 15 14 14 15 17 16 13 11 10 12 11 11 12 14 14 12 12 12 13 14 13 13 13 13 13 13 13 13 13 13 12 12 12 12 11 11 10 9 8 6 3
3 2 8 13 14 15 13 14 14 14 13 12 13 13 13 12 12 12 11 11 10 11 12 12 12 10 10 11 12 12 12 12 12 12 12 12 12 12 12 11 11 11 10 10 9 8 6 4 3
3 1 8 13 13 14 15 15 14 14 13 14 16 18 17 16 15 13 11 10 9 10 9 10 11 9 9 11 10 10 10 9 9 8 9 8 6 7 7 10 10 10 9 8 8 7 5 4 5
2 5 12 12 13 14 14 13 14 14 14 17 18 18 17 15 14 12 11 11 9 8 8 7 8 8 9 8 7 5 6 6 4 4 5 3 3 4 7 9 9 8 8 7 7 7 6 5 4
5 8 11 13 13 12 13 12 12 13 14 16 18 17 15 14 13 11 10 11 9 8 8 8 6 5 7 6 5 3 4 4 4 4 4 3 3 4 5 4 5 5 6 5 6 6 5 5 3
5 8 10 11 12 10 12 12 13 14 16 16 17 16 15 14 12 11 11 11 9 8 9 9 8 5 5 4 4 3 4 3 3 4 3 3 2 2 2 2 3 3 2 2 2 2 2 2 1
4 7 8 8 10 11 11 12 14 16 18 17 17 15 14 13 12 11 11 11 9 8 8 8 7 6 5 3 1 3 3 3 4 3 3 3 2 2 2 1 1 1 1 2 1 1 0 1 1
3 5 6 8 9 10 11 11 13 15 16 16 15 14 13 12 13 12 11 10 10 9 9 8 7 6 4 2 2 2 3 3 2 3 4 3 2 2 2 1 1 1 1 2 1 0 0 0 1
3 3 5 7 10 9 9 7 12 15 15 14 14 13 13 12 12 11 11 10 10 9 9 8 6 7 4 3 3 2 2 3 3 3 4 3 3 3 2 1 0 1 1 1 0 0 0 1 1
7 6 6 8 10 10 9 6 10 14 14 13 13 12 12 11 11 11 11 9 9 9 8 7 7 8 5 2 0 1 1 2 2 3 3 3 3 2 1 1 1 1 1 1 1 1 0 0 1
9 8 9 8 9 10 8 9 10 12 14 13 12 12 12 12 11 11 11 10 9 8 8 6 5 8 6 4 2 1 1 1 1 2 2 3 3 2 1 1 1 1 0 1 1 1 0 1 1
8 9 9 8 9 9 9 9 12 12 12 13 12 12 12 13 12 11 11 10 10 9 8 7 5 5 5 4 2 1 2 1 1 1 2 2 2 2 1 1 2 1 0 1 0 0 1 1 2
10 8 6 6 7 7 8 9 11 10 10 12 12 13 12 12 13 12 12 11 10 9 8 7 7 6 4 3 3 3 2 2 2 3 4 3 3 2 2 1 1 1 1 1 1 1 2 2 2
10 9 6 4 5 5 6 8 8 10 9 11 12 13 13 13 12 12 11 11 10 9 9 8 7 7 6 4 3 2 2 1 2 1 3 4 3 3 3 3 2 2 1 2 2 2 2 2 2
11 10 8 5 5 6 6 6 7 7 7 9 11 12 13 13 13 13 12 11 11 11 10 9 7 7 7 5 4 3 2 1 1 1 2 3 3 3 2 2 2 2 2 2 2 3 3 2 2
10 9 8 7 7 6 9 6 7 10 8 10 10 11 12 13 13 13 13 11 11 11 10 8 8 7 6 5 5 5 4 3 2 2 2 2 2 2 2 2 2 2 2 2 3 2 2 2 2
10 7 7 9 9 10 9 6 6 9 10 12 11 12 12 13 14 14 14 12 11 11 10 9 8 7 6 6 5 4 3 3 2 1 2 2 2 2 2 2 2 2 2 2 2 2 2 1 2
10 9 10 11 10 12 10 7 6 8 9 10 12 12 12 13 13 13 13 12 11 11 10 10 9 7 7 6 5 4 4 3 2 2 2 2 1 2 2 2 2 2 2 2 2 2 2 2 2
12 10 8 9 9 9 9 8 5 8 8 9 10 11 11 11 12 12 12 12 10 10 9 9 9 8 7 6 5 4 3 2 2 2 2 2 1 1 2 2 2 2 2 2 2 2 2 2 2
14 15 11 8 8 8 10 8 5 7 7 7 7 9 10 11 10 11 12 11 10 10 9 9 8 7 7 6 5 4 3 3 2 2 2 1 1 1 1 1 1 1 2 2 1 1 2 2 2
15 15 15 12 12 8 7 6 7 8 8 9 8 8 8 9 10 10 11 11 11 10 9 9 8 7 6 5 5 4 3 2 2 1 1 0 1 1 1 1 1 1 1 1 0 1 1 1 1
16 14 11 11 10 10 8 9 7 9 9 9 8 8 8 8 9 10 9 10 9 9 9 8 8 7 6 5 4 4 3 3 1 1 1 0 1 1 0 0 0 0 0 0 0 1 1 1 1
17 17 13 9 10 11 7 4 6 8 8 9 8 8 8 8 8 9 9 9 9 9 9 8 8 7 6 5 4 3 4 3 3 2 1 0 0 1 1 1 0 1 1 1 1 1 1 1 2
16 16 14 10 9 9 8 2 4 7 7 8 8 8 8 8 8 8 10 10 9 9 8 8 7 7 6 5 5 4 4 4 3 2 1 1 1 1 1 1 1 1 1 2 2 2 3 3 4
Wind_Direction
238 230 223 238 229 73 67 64 66 68 66 58 56 64 59 53 64 84 101 99 99 98 95 88 83 83 81 80 82 82 82 87 91 94 98 98 99 101 101 101 102 103 105 105 104 104 103 104 105
253 241 231 241 68 75 70 69 69 71 78 76 68 68 69 67 78 96 101 102 102 100 95 88 88 85 83 82 82 82 84 88 91 96 98 98 99 100 101 101 103 104 105 106 106 106 105 106 107
257 251 255 90 65 73 78 77 80 78 79 82 75 64 62 74 80 95 106 109 103 97 93 91 90 87 85 83 82 82 85 90 93 96 97 97 98 99 100 100 101 102 104 106 106 106 106 107 109
258 240 211 77 78 75 81 88 89 87 82 82 84 75 69 74 89 100 110 108 104 100 97 95 92 89 87 85 84 84 87 90 93 98 99 99 99 101 101 101 101 101 103 105 106 106 106 106 107
239 262 92 85 84 84 85 90 89 84 82 83 85 87 84 83 94 104 108 105 101 99 100 100 95 92 89 86 85 87 88 90 95 99 100 100 102 103 104 104 103 103 104 106 107 108 107 107 108
255 219 97 91 88 87 88 92 92 92 97 101 100 97 92 99 103 105 104 103 102 104 103 105 102 98 93 90 87 87 87 88 95 102 102 104 102 102 104 105 106 106 106 108 110 109 110 113 113
262 78 106 100 96 90 86 91 94 93 93 97 105 103 107 113 112 105 104 100 100 106 112 116 114 108 101 96 93 90 91 92 94 102 102 106 106 108 107 108 109 109 111 111 112 113 117 125 143
318 48 103 101 98 96 95 88 90 95 93 104 113 110 123 128 122 111 105 101 103 107 114 117 119 123 119 110 105 103 100 100 102 105 108 112 114 115 116 113 110 112 116 119 123 129 138 154 188
259 94 92 98 104 109 106 100 97 98 96 83 87 109 126 133 124 118 113 107 103 104 110 117 122 130 124 119 119 120 115 113 117 119 125 133 138 128 128 113 120 121 126 133 139 147 165 189 211
67 82 86 96 105 111 111 115 118 113 102 98 100 112 127 134 129 127 128 123 114 113 113 110 116 131 128 123 132 143 131 135 140 131 147 159 119 112 112 125 133 138 145 154 167 175 191 221 217
69 85 95 102 105 112 116 114 117 118 115 118 123 130 136 133 130 130 126 119 120 124 116 107 97 94 110 119 140 135 120 134 135 120 124 126 123 125 129 148 150 161 171 187 172 188 209 219 223
91 87 92 97 105 106 105 103 97 99 108 119 128 135 136 137 135 131 123 122 126 123 112 106 101 82 72 93 113 128 129 140 129 131 137 118 109 118 131 149 163 171 181 185 177 186 204 217 238
117 101 104 109 106 101 98 97 100 103 112 124 132 138 143 140 135 131 131 128 126 121 114 107 107 99 86 69 63 103 109 111 116 128 117 118 116 107 103 97 124 159 151 149 126 109 116 344 332
138 119 121 124 120 117 112 114 115 117 123 131 137 145 146 139 139 135 134 133 137 137 130 124 120 111 108 113 87 82 101 106 109 118 112 107 99 91 86 86 40 55 51 60 71 129 54 327 321
176 148 161 150 134 127 115 123 127 131 134 139 146 148 143 144 142 141 140 144 144 140 132 135 135 126 135 149 165 149 136 137 126 112 120 124 117 117 123 111 82 75 80 69 24 38 275 250 250
200 192 196 172 154 146 138 149 144 146 147 148 152 150 150 148 151 146 144 147 142 141 141 154 152 141 149 152 97 67 115 112 120 133 129 130 125 135 137 119 136 136 151 172 203 243 239 289 287
217 206 202 179 163 155 150 153 169 163 154 154 157 157 159 157 158 151 152 155 149 144 144 148 144 145 154 155 155 160 96 82 104 124 130 138 147 167 175 125 113 236 241 223 243 134 239 268 265
218 210 209 180 166 161 153 154 169 170 162 160 165 166 167 164 163 158 161 162 155 152 151 152 156 149 156 156 164 188 159 154 161 146 144 141 162 181 178 162 194 234 254 280 292 294 263 264 258
244 235 214 186 162 170 160 165 172 167 171 164 167 170 172 168 166 163 168 168 162 159 159 162 169 159 165 175 181 185 177 191 190 185 162 167 195 188 191 231 190 213 239 257 272 255 251 257 254
247 251 234 191 165 188 173 175 178 170 184 172 169 174 172 169 166 165 168 168 165 164 162 167 176 170 181 181 182 179 179 211 207 185 149 177 194 196 208 198 225 213 225 249 263 267 268 267 253
239 242 241 229 201 200 210 199 181 188 200 182 178 175 174 172 171 170 173 174 174 173 174 178 178 176 189 181 179 187 174 209 217 177 167 195 194 196 227 197 238 244 236 228 240 247 246 259 268
236 239 248 246 239 223 217 220 194 189 198 197 187 177 177 175 174 173 176 176 177 175 176 171 172 176 182 183 195 198 196 202 203 193 168 189 201 204 202 198 216 247 262 245 246 234 243 245 262
247 245 248 253 249 256 237 228 212 187 197 196 189 183 179 175 176 176 176 174 178 179 177 171 168 172 175 188 195 204 210 201 196 187 176 193 187 199 219 202 203 219 241 249 269 306 284 269 263
241 245 243 249 251 246 244 240 207 192 195 192 183 181 180 175 173 170 170 168 175 178 176 172 167 171 176 188 192 195 210 211 198 199 188 205 197 198 227 225 212 226 240 236 243 262 267 275 280
224 229 226 228 232 243 246 241 196 177 173 182 180 175 171 169 168 165 165 167 169 170 169 164 161 169 175 182 190 191 199 207 206 214 212 220 205 183 218 236 215 231 241 244 242 235 257 259 260
219 228 231 233 233 234 226 229 191 168 160 162 159 160 162 163 162 160 162 162 166 166 161 156 155 163 171 179 183 184 184 196 199 208 219 206 222 213 197 203 208 226 248 256 241 248 237 246 255
221 231 241 246 253 251 229 213 185 168 160 156 160 157 155 155 156 158 159 161 164 163 160 159 154 159 169 174 171 170 171 184 196 181 185 223 252 249 142 189 201 206 242 294 296 273 267 269 260
238 229 239 248 255 258 225 211 206 179 170 165 162 153 155 151 159 154 154 153 152 151 150 152 153 158 164 165 169 164 163 163 151 100 98 272 314 336 356 256 197 137 80 22 355 346 339 339 338
226 233 235 247 254 257 252 226 192 172 171 167 162 155 154 158 156 150 145 139 137 142 146 148 148 150 152 155 158 153 147 144 132 126 126 88 334 345 340 287 107 84 61 60 57 49 28 23 22
229 232 231 235 246 262 266 234 141 152 160 160 154 144 143 147 146 140 135 131 135 138 142 144 146 146 144 144 140 136 130 131 130 125 112 95 72 64 46 36 62 75 68 59 47 39 50 50 46